| time (UTC) | temp F | wind direction | speed MPH | gust MPH | rain 1hr in | rain 24hr in | rain mn in | humidity % | barometer mb |
| 20260504011533 | 48 | 148 | 0.0 | 0.0 | 0.00 | 0.00 | 0.00 | 57 | 1010.9 |
| 20260504010535 | 50 | 148 | 0.0 | 0.0 | 0.00 | 0.00 | 0.00 | 54 | 1010.6 |
| 20260504005508 | 50 | 148 | 0.0 | 0.0 | 0.00 | 0.00 | 0.00 | 52 | 1010.5 |
| 20260504004454 | 51 | 148 | 0.0 | 0.0 | 0.00 | 0.00 | 0.00 | 50 | 1010.4 |
| 20260504003421 | 52 | 148 | 0.0 | 0.0 | 0.00 | 0.00 | 0.00 | 47 | 1010.2 |
| 20260504002406 | 53 | 148 | 0.0 | 0.0 | 0.00 | 0.00 | 0.00 | 46 | 1010.1 |
| 20260504001427 | 54 | 148 | 0.0 | 0.0 | 0.00 | 0.00 | 0.00 | 46 | 1010.0 |
| 20260504000427 | 55 | 148 | 0.0 | 0.0 | 0.00 | 0.00 | 0.00 | 41 | 1009.8 |
| 20260503235430 | 56 | 148 | 0.0 | 0.0 | 0.00 | 0.00 | 0.00 | 38 | 1009.6 |
| 20260503234453 | 56 | 156 | 0.0 | 0.0 | 0.00 | 0.00 | 0.00 | 36 | 1009.5 |
| 20260503233453 | 57 | 172 | 0.0 | 0.0 | 0.00 | 0.00 | 0.00 | 35 | 1009.4 |
| 20260503231308 | 57 | 164 | 0.0 | 6.0 | 0.00 | 0.00 | 0.00 | 33 | 1009.1 |
| 20260503230239 | 58 | 176 | 0.0 | 6.0 | 0.00 | 0.00 | 0.00 | 31 | 1009.0 |
| 20260503225235 | 59 | 174 | 0.0 | 6.0 | 0.00 | 0.00 | 0.00 | 31 | 1009.0 |
| 20260503224229 | 60 | 168 | 0.0 | 4.0 | 0.00 | 0.00 | 0.00 | 30 | 1008.9 |
| 20260503223159 | 60 | 170 | 0.0 | 9.0 | 0.00 | 0.00 | 0.00 | 29 | 1008.9 |
| 20260503222209 | 60 | 172 | 2.0 | 9.0 | 0.00 | 0.00 | 0.00 | 31 | 1008.8 |
| 20260503221215 | 60 | 120 | 2.0 | 15.0 | 0.00 | 0.00 | 0.00 | 30 | 1008.8 |
| 20260503220154 | 60 | 203 | 1.0 | 10.0 | 0.00 | 0.00 | 0.00 | 31 | 1008.8 |
| 20260503215126 | 60 | 153 | 2.0 | 8.0 | 0.00 | 0.00 | 0.00 | 32 | 1008.9 |
| 20260503214129 | 60 | 154 | 2.0 | 7.0 | 0.00 | 0.00 | 0.00 | 31 | 1008.8 |
| 20260503213135 | 60 | 159 | 2.0 | 6.0 | 0.00 | 0.00 | 0.00 | 31 | 1008.7 |
| 20260503210955 | 59 | 141 | 3.0 | 15.0 | 0.00 | 0.00 | 0.00 | 33 | 1008.9 |
| 20260503205945 | 59 | 125 | 2.0 | 13.0 | 0.00 | 0.00 | 0.00 | 33 | 1008.8 |
| 20260503204957 | 59 | 145 | 3.0 | 13.0 | 0.00 | 0.00 | 0.00 | 33 | 1008.8 |
| 20260503203926 | 60 | 114 | 3.0 | 11.0 | 0.00 | 0.00 | 0.00 | 32 | 1008.8 |
| 20260503201812 | 59 | 228 | 2.0 | 12.0 | 0.00 | 0.00 | 0.00 | 35 | 1008.6 |
| 20260503200830 | 59 | 146 | 3.0 | 12.0 | 0.00 | 0.00 | 0.00 | 36 | 1008.6 |
| 20260503195755 | 59 | 291 | 2.0 | 12.0 | 0.00 | 0.00 | 0.00 | 37 | 1008.9 |
| 20260503194728 | 58 | 174 | 2.0 | 11.0 | 0.00 | 0.00 | 0.00 | 38 | 1008.9 |
| 20260503193737 | 57 | 160 | 2.0 | 10.0 | 0.00 | 0.00 | 0.00 | 38 | 1009.0 |
| 20260503191659 | 57 | 117 | 1.0 | 9.0 | 0.00 | 0.00 | 0.00 | 45 | 1009.3 |
| 20260503190709 | 56 | 188 | 2.0 | 8.0 | 0.00 | 0.00 | 0.00 | 40 | 1009.4 |
| 20260503185726 | 57 | 285 | 2.0 | 9.0 | 0.00 | 0.00 | 0.00 | 39 | 1009.3 |
| 20260503184740 | 57 | 69 | 1.0 | 10.0 | 0.00 | 0.00 | 0.00 | 41 | 1009.3 |
| 20260503183803 | 57 | 165 | 3.0 | 10.0 | 0.00 | 0.00 | 0.00 | 40 | 1009.6 |
| 20260503182822 | 57 | 139 | 3.0 | 10.0 | 0.00 | 0.00 | 0.00 | 40 | 1009.5 |
| 20260503181829 | 56 | 109 | 2.0 | 9.0 | 0.00 | 0.00 | 0.00 | 39 | 1009.5 |
| 20260503180830 | 56 | 127 | 2.0 | 10.0 | 0.00 | 0.00 | 0.00 | 39 | 1009.5 |
| 20260503174620 | 57 | 139 | 3.0 | 11.0 | 0.00 | 0.00 | 0.00 | 38 | 1009.3 |
| 20260503173551 | 56 | 111 | 2.0 | 16.0 | 0.00 | 0.00 | 0.00 | 39 | 1009.3 |
| 20260503171430 | 56 | 156 | 3.0 | 10.0 | 0.00 | 0.00 | 0.00 | 38 | 1009.4 |
| 20260503170407 | 56 | 154 | 2.0 | 10.0 | 0.00 | 0.00 | 0.00 | 41 | 1009.4 |
| 20260503150324 | 51 | 102 | 2.0 | 10.0 | 0.00 | 0.00 | 0.00 | 52 | 1010.0 |
| 20260503140104 | 51 | 214 | 3.0 | 12.0 | 0.00 | 0.00 | 0.00 | 54 | 1010.2 |
| 20260503130926 | 50 | 149 | 3.0 | 12.0 | 0.00 | 0.00 | 0.00 | 56 | 1009.9 |
| 20260503110643 | 43 | 170 | 0.0 | 1.0 | 0.00 | 0.00 | 0.00 | 69 | 1009.8 |
| 20260503090149 | 44 | 181 | 0.0 | 4.0 | 0.00 | 0.08 | 0.00 | 64 | 1009.0 |
| 20260503080837 | 44 | 129 | 0.0 | 6.0 | 0.00 | 0.08 | 0.00 | 63 | 1009.4 |
| 20260503071700 | 46 | 194 | 0.0 | 9.0 | 0.00 | 0.08 | 0.00 | 61 | 1009.3 |
| 20260503070705 | 46 | 195 | 0.0 | 1.0 | 0.00 | 0.08 | 0.00 | 62 | 1009.3 |
| 20260503060336 | 47 | 177 | 0.0 | 8.0 | 0.00 | 0.08 | 0.00 | 59 | 1009.5 |
| 20260503054355 | 48 | 162 | 0.0 | 0.0 | 0.00 | 0.08 | 0.00 | 59 | 1009.7 |
| 20260503053416 | 48 | 203 | 0.0 | 0.0 | 0.00 | 0.08 | 0.00 | 58 | 1009.9 |
| 20260503052359 | 48 | 195 | 0.0 | 1.0 | 0.00 | 0.08 | 0.00 | 57 | 1009.9 |
| 20260503051349 | 48 | 165 | 0.0 | 0.0 | 0.00 | 0.08 | 0.00 | 56 | 1010.1 |
| 20260503050344 | 49 | 156 | 0.0 | 0.0 | 0.00 | 0.08 | 0.00 | 56 | 1010.0 |
| 20260503045348 | 49 | 148 | 0.0 | 2.0 | 0.00 | 0.08 | 0.00 | 55 | 1010.2 |
| 20260503044359 | 49 | 193 | 0.0 | 7.0 | 0.00 | 0.08 | 0.00 | 54 | 1010.3 |
| 20260503043330 | 49 | 154 | 0.0 | 2.0 | 0.00 | 0.08 | 0.00 | 55 | 1010.2 |
| 20260503042317 | 49 | 190 | 0.0 | 2.0 | 0.00 | 0.08 | 0.00 | 56 | 1010.5 |
| 20260503040243 | 49 | 168 | 0.0 | 0.0 | 0.00 | 0.08 | 0.00 | 58 | 1010.4 |
| 20260503035244 | 49 | 193 | 0.0 | 6.0 | 0.00 | 0.08 | 0.08 | 59 | 1010.2 |
| 20260503031955 | 49 | 174 | 0.0 | 0.0 | 0.00 | 0.08 | 0.08 | 59 | 1010.1 |
| 20260503030947 | 49 | 167 | 0.0 | 0.0 | 0.00 | 0.08 | 0.08 | 60 | 1010.0 |
| 20260503025920 | 49 | 179 | 0.0 | 0.0 | 0.00 | 0.08 | 0.08 | 63 | 1010.1 |
| 20260503024857 | 49 | 162 | 0.0 | 0.0 | 0.00 | 0.08 | 0.08 | 63 | 1010.1 |
| 20260503023909 | 49 | 162 | 0.0 | 0.0 | 0.00 | 0.08 | 0.08 | 63 | 1010.1 |
| 20260503022908 | 49 | 162 | 0.0 | 0.0 | 0.00 | 0.08 | 0.08 | 64 | 1010.1 |
| 20260503020727 | 50 | 162 | 0.0 | 0.0 | 0.00 | 0.08 | 0.08 | 60 | 1010.4 |
| 20260503015652 | 51 | 140 | 0.0 | 0.0 | 0.00 | 0.08 | 0.08 | 61 | 1010.5 |
| 20260503014630 | 51 | 188 | 0.0 | 1.0 | 0.00 | 0.08 | 0.08 | 62 | 1010.3 |
| 20260503013610 | 51 | 162 | 0.0 | 1.0 | 0.00 | 0.08 | 0.08 | 64 | 1010.4 |
| 20260503012541 | 51 | 169 | 0.0 | 1.0 | 0.00 | 0.08 | 0.08 | 66 | 1010.3 |